Theta_e
293 294 293 290 294 293 293 293 294 293 295 295 290 290 292 292 287 284 292 293 292 293 296 298 299 300 300 301 302 304 305 305 306 307 306 306 305 305 306 306 307 307 309 311 311 310 310 312 313 312 312 311 311 311 310 309 309 308 308 306 305 305 305 306 308 310 313 315 317 318 319 319 320 320 321 321 322 322 322 322 321 321 322 321 320 319 318
292 293 294 294 289 291 291 291 292 293 293 293 293 294 293 294 291 292 294 294 293 296 297 299 301 302 301 302 303 303 302 302 303 305 305 305 305 305 305 305 306 306 307 309 309 309 310 313 313 312 312 312 311 311 311 311 310 310 307 306 305 304 304 305 306 308 310 312 313 314 314 314 315 316 317 318 318 319 319 320 319 316 317 318 318 318 317
288 292 294 294 292 291 289 291 292 292 292 292 292 292 293 293 292 293 293 293 292 298 300 300 301 301 302 301 300 300 301 301 302 302 301 303 304 304 305 305 306 307 307 308 309 309 311 312 312 312 312 312 312 312 311 310 309 309 307 305 305 304 304 305 306 306 307 308 309 310 310 311 311 310 312 311 311 311 312 313 314 313 312 314 314 316 316
285 289 290 290 291 291 289 289 290 290 289 287 290 289 292 291 289 291 291 289 290 296 299 300 300 300 300 299 300 300 301 301 300 300 300 300 304 304 304 304 305 306 307 307 308 310 311 311 311 310 311 311 310 309 309 308 308 310 307 305 304 304 304 305 305 306 306 306 306 307 307 307 308 306 304 304 305 306 306 305 306 303 305 310 312 313 313
282 287 289 288 288 286 283 285 289 290 291 291 292 292 293 292 292 289 286 288 294 296 298 296 296 297 298 298 299 299 299 300 299 299 299 300 302 304 306 306 306 307 306 307 309 310 310 310 309 311 311 308 307 308 307 307 307 307 305 304 303 303 303 304 304 304 304 304 304 304 305 304 303 301 300 300 300 301 301 302 298 301 305 305 307 308 310
282 286 286 287 284 277 278 291 294 293 290 290 289 289 291 293 293 291 294 294 296 296 296 295 295 296 296 298 300 301 300 301 300 300 300 301 303 304 306 306 307 307 308 309 309 309 309 309 311 310 309 308 307 307 307 306 305 304 304 304 304 303 303 303 303 303 303 303 303 303 302 301 299 298 298 298 299 299 299 299 299 300 300 301 302 303 306
282 285 285 281 275 277 290 293 295 295 294 293 291 292 293 293 295 294 293 294 294 295 296 296 296 297 298 299 299 300 300 301 302 301 301 301 302 303 304 306 306 307 308 308 308 308 309 309 308 308 307 307 307 307 306 305 305 305 304 304 303 303 303 303 303 303 303 302 302 301 300 300 299 297 296 297 297 298 297 298 298 299 299 299 300 300 301
286 283 281 274 275 287 291 291 293 295 294 293 292 290 293 294 294 294 293 294 295 296 296 297 297 297 298 298 299 300 301 302 301 301 301 302 303 303 304 305 306 307 308 308 308 307 308 307 306 305 305 305 305 304 304 303 302 303 303 303 303 303 303 303 303 303 302 302 301 300 299 298 296 296 295 295 295 296 296 296 297 298 298 299 299 299 299
279 281 280 279 286 285 287 287 289 290 287 288 287 283 287 292 293 293 292 293 294 295 296 297 297 298 298 296 297 300 301 303 304 303 303 304 304 306 308 308 307 307 308 307 306 306 305 304 304 304 304 304 303 302 301 301 301 300 301 301 301 302 301 303 303 303 303 301 300 300 298 297 296 295 294 294 294 294 294 294 295 295 297 297 298 298 297
285 281 278 279 278 274 281 289 293 294 294 293 293 289 285 292 293 294 293 292 293 294 295 295 296 298 294 292 294 299 303 304 305 306 307 306 305 304 304 304 304 303 303 303 302 302 301 302 304 304 302 301 300 299 299 299 299 299 300 300 301 301 301 302 302 302 302 301 300 298 298 296 295 295 295 293 293 293 294 294 294 295 295 296 296 296 296
283 280 277 276 274 278 286 289 292 294 295 295 295 288 282 291 294 294 294 293 294 295 295 296 297 294 289 290 294 301 299 301 301 300 301 301 301 301 301 301 300 300 300 300 300 300 302 301 301 301 300 299 299 298 298 299 299 298 299 300 301 301 301 302 301 300 300 300 299 299 297 296 296 294 293 292 292 292 294 295 295 296 294 296 295 295 295
281 280 278 276 279 279 286 290 292 292 294 295 291 278 279 291 294 296 296 295 295 295 296 297 295 293 289 291 296 298 299 298 300 299 299 299 299 299 300 300 299 299 299 300 299 299 299 299 300 299 298 298 296 297 297 298 298 298 299 300 301 301 300 300 300 300 299 298 298 297 296 296 295 294 292 291 291 292 294 295 295 295 295 295 294 293 293
281 280 279 281 281 287 290 291 294 294 298 291 281 275 284 293 298 298 299 297 298 298 297 297 294 296 296 296 296 297 297 296 296 297 298 299 298 298 298 298 295 299 299 299 298 298 299 299 298 297 297 296 295 295 295 296 296 298 299 299 299 298 299 299 299 299 299 298 298 296 295 294 293 292 292 292 291 291 291 292 293 293 293 293 293 293 293
280 280 278 278 282 288 291 293 296 296 291 280 279 289 297 297 296 297 299 299 297 296 295 295 295 295 296 297 296 296 296 295 294 295 296 297 298 298 299 296 296 297 296 296 296 296 297 297 297 296 296 294 293 294 294 294 296 297 297 297 296 296 296 297 297 297 297 297 294 294 292 291 291 291 292 291 291 291 292 292 291 291 291 291 292 293 293
283 281 278 277 274 285 295 296 294 293 284 286 292 296 297 296 296 296 295 295 294 295 294 295 295 295 295 295 295 295 296 294 293 294 295 296 295 295 295 295 294 294 294 294 295 295 296 295 296 295 292 291 292 292 292 293 295 296 295 294 294 294 294 293 292 292 292 292 291 292 291 291 290 290 291 290 289 290 290 290 290 290 290 290 291 292 292
279 278 276 277 285 290 296 294 286 292 292 297 298 296 294 294 293 293 294 293 294 291 294 294 294 294 294 294 295 295 294 294 294 294 295 295 295 295 295 294 293 292 293 293 293 293 294 294 294 293 292 291 291 289 291 294 294 293 292 292 291 290 289 290 290 290 290 290 290 290 290 290 290 289 289 290 290 290 290 290 291 291 291 291 291 291 292
283 281 284 288 291 292 296 296 295 298 298 299 299 297 297 294 292 292 294 294 294 295 294 294 293 292 292 292 294 293 294 293 293 292 293 294 294 293 293 293 292 291 292 292 292 291 292 292 292 292 292 291 289 288 291 293 292 291 290 288 287 287 287 288 288 289 289 289 289 289 289 290 289 290 289 288 290 290 290 290 291 291 291 291 292 292 292
290 291 290 294 292 294 294 297 299 298 298 296 298 299 296 290 289 290 293 292 293 294 294 293 292 293 292 292 292 292 292 292 292 293 294 293 293 293 292 291 291 290 290 290 289 289 290 290 291 290 290 289 288 290 291 291 290 289 287 286 286 286 286 287 288 288 288 288 288 288 288 290 290 290 290 290 290 290 290 290 290 291 291 291 292 291 291
286 282 291 290 291 293 294 295 297 296 296 296 297 297 298 295 291 292 293 291 290 292 291 291 291 291 293 293 292 291 291 291 291 292 292 292 292 292 291 291 290 290 289 289 288 288 288 290 290 290 289 289 289 290 289 289 288 286 285 285 285 286 286 287 287 288 288 289 290 290 289 289 290 290 291 290 290 290 290 290 290 290 291 291 291 291 290
284 285 289 292 294 294 295 296 295 295 294 294 293 295 296 296 294 293 294 293 292 291 291 291 290 290 291 291 290 290 290 290 291 291 291 291 291 292 292 291 290 289 289 288 288 288 288 289 290 289 288 288 288 288 288 287 286 285 285 285 285 285 285 286 287 288 288 288 289 290 290 289 290 290 290 290 290 290 290 290 290 290 290 290 290 291 291
288 290 291 292 292 293 294 294 294 294 294 293 291 290 291 292 291 292 292 292 292 292 292 292 291 289 289 289 289 289 290 290 290 290 291 291 291 290 290 289 288 289 289 288 288 287 288 289 289 288 288 288 288 287 287 286 286 284 284 284 284 285 286 287 287 288 289 289 289 290 290 290 290 291 290 290 290 290 290 292 292 291 291 291 291 291 291
284 285 288 290 286 286 291 290 290 290 291 291 290 290 290 290 290 291 289 290 289 290 290 291 291 289 288 288 289 288 289 289 289 290 290 290 289 289 289 289 288 288 287 287 287 287 288 289 288 288 288 287 288 287 286 286 285 284 284 284 284 285 286 287 288 289 289 289 289 290 289 290 290 290 289 289 290 290 290 289 289 289 290 291 292 292 291
284 290 293 294 293 292 291 290 290 291 291 289 288 288 288 288 289 288 287 286 286 287 288 291 290 288 287 287 287 287 288 288 289 289 289 288 288 288 288 288 287 287 287 287 287 287 287 288 288 287 287 287 287 287 286 286 285 284 284 283 284 285 285 286 287 287 287 288 289 289 289 290 289 289 290 289 288 288 289 288 288 288 288 289 290 289 290
292 292 292 292 292 290 288 288 288 289 289 287 286 286 286 285 286 286 286 286 285 285 286 286 287 287 287 287 287 286 287 288 288 288 288 289 288 288 288 287 287 287 287 287 287 287 288 287 287 286 286 286 286 286 285 284 284 283 283 282 282 283 284 285 285 286 287 287 288 288 289 289 289 289 289 288 289 288 287 287 287 287 287 287 288 288 289
288 289 288 288 287 285 287 287 286 285 285 284 283 283 284 284 284 285 284 285 285 285 285 285 286 287 286 287 287 287 287 287 288 287 287 287 287 287 287 287 287 287 287 288 288 288 287 287 286 286 286 286 286 285 283 282 282 281 281 281 282 282 283 284 284 285 286 287 287 288 288 288 288 288 288 288 287 288 288 287 287 287 287 287 287 288 288
287 286 285 285 284 285 287 284 282 282 283 283 283 283 284 285 285 284 284 284 285 285 285 285 285 286 287 286 286 286 286 286 286 286 286 286 287 287 286 286 287 288 288 287 287 286 286 286 285 285 284 285 284 283 281 281 281 280 280 280 281 282 282 283 283 283 284 285 286 287 288 288 288 288 288 288 288 288 288 288 287 286 286 286 286 287 287
283 282 284 284 283 284 283 282 281 282 282 283 283 283 284 284 284 284 284 284 284 285 285 285 285 286 286 285 285 285 285 285 285 286 286 286 286 286 287 287 287 286 286 286 285 285 284 284 284 284 284 284 283 281 279 278 278 278 278 278 279 280 281 282 283 284 285 285 286 287 287 287 288 288 288 288 288 287 287 287 287 287 287 287 286 286 287
278 277 280 280 280 281 281 281 282 282 282 283 283 282 280 280 280 280 280 282 283 284 283 283 283 282 281 283 283 282 282 282 282 283 283 284 285 286 285 284 284 284 284 284 284 284 284 284 284 283 283 282 280 278 277 277 277 276 277 278 278 279 280 282 283 284 285 286 286 287 287 287 288 288 288 288 287 287 287 287 287 287 287 288 288 286 285
274 274 276 277 279 280 281 282 282 282 282 282 280 278 277 276 276 277 278 278 279 279 278 279 280 280 279 279 279 278 278 279 279 280 281 281 282 282 282 282 282 282 282 282 282 283 283 283 283 282 283 281 277 275 276 276 275 275 276 277 277 278 279 280 282 283 284 284 285 286 286 287 287 287 287 287 287 287 287 287 286 287 287 287 285 284 284
272 273 274 275 277 279 279 279 280 281 280 278 276 276 275 274 274 275 275 275 276 276 276 277 276 275 276 275 276 276 276 276 277 277 277 278 279 279 279 279 280 280 280 281 281 282 282 282 281 281 281 281 278 276 275 275 274 274 274 275 275 276 278 279 280 281 282 283 283 284 285 286 287 287 287 287 287 287 286 286 286 286 286 286 284 285 284
269 270 272 274 275 277 277 278 279 278 278 276 274 272 272 273 272 272 273 273 273 273 274 273 272 272 272 272 273 274 274 274 274 274 274 275 276 276 277 278 277 277 278 279 280 280 279 279 278 278 279 278 276 275 275 273 273 273 273 274 275 277 278 279 280 280 281 282 282 283 284 285 286 286 286 286 286 286 286 286 285 285 285 285 284 284 285
269 272 275 277 277 274 273 274 275 275 274 271 269 269 270 269 268 269 269 269 270 270 270 269 269 269 270 271 270 270 270 271 271 271 272 273 274 275 277 277 277 277 277 278 277 276 275 275 274 275 276 275 275 275 273 271 271 271 272 273 274 275 276 278 279 279 280 280 281 282 282 283 284 285 285 285 285 285 285 285 285 285 285 284 283 284 285
268 271 274 271 267 269 270 271 270 269 268 267 267 268 268 268 268 267 267 267 267 267 267 267 268 268 268 268 267 268 268 268 269 269 270 272 273 274 274 275 275 275 275 276 275 275 275 274 274 275 274 274 273 272 271 270 270 270 271 272 273 274 275 276 277 278 278 279 279 280 281 282 283 284 284 285 285 285 285 285 284 284 283 283 284 285 285
265 267 266 265 264 264 264 264 265 264 264 265 265 265 266 265 265 264 264 265 265 265 265 266 267 267 267 266 266 266 267 268 268 269 270 271 271 272 273 273 274 274 275 275 275 275 275 275 275 273 271 270 269 269 269 269 269 270 271 272 272 273 274 275 276 277 277 278 278 279 280 280 281 282 282 283 284 284 284 283 283 283 283 282 283 282 281
262 262 262 262 263 263 263 262 261 261 261 261 262 262 263 263 262 262 263 263 263 264 265 265 265 266 265 265 266 266 267 267 268 269 269 269 270 271 272 272 273 273 274 274 274 275 274 271 270 269 268 268 268 268 268 269 269 269 270 271 272 272 273 274 274 275 276 276 277 278 279 279 280 278 280 282 282 282 282 282 282 281 281 281 279 277 278
260 260 260 261 261 261 260 260 260 260 260 259 260 260 260 261 261 261 261 262 263 264 264 264 264 264 264 264 265 265 266 266 266 267 268 269 270 271 271 271 272 272 272 272 274 268 266 268 268 267 267 267 267 267 268 269 269 269 270 270 270 271 272 273 273 274 275 276 276 276 277 277 277 279 279 280 281 281 281 281 280 280 279 279 277 275 275
260 259 259 259 259 259 259 259 259 259 258 258 258 258 259 260 260 261 262 262 263 263 263 263 263 263 263 264 264 265 265 266 266 267 268 269 270 270 269 269 269 269 270 270 270 265 265 266 267 266 266 266 267 268 269 269 269 269 269 269 269 270 270 272 273 274 274 275 275 275 275 275 276 277 277 278 278 279 279 279 278 277 278 277 275 274 274
258 258 257 257 258 257 257 257 258 258 258 258 258 259 259 259 260 261 261 262 262 263 263 263 263 263 263 264 264 264 265 266 266 267 268 269 268 267 266 267 267 268 267 267 266 264 265 266 265 265 266 266 266 267 268 268 268 268 268 268 269 270 270 271 272 272 273 273 273 274 274 274 274 275 276 276 276 277 277 277 276 275 275 274 273 273 273
256 257 257 257 257 256 256 257 258 258 258 257 258 258 259 260 261 261 261 261 262 263 262 262 263 262 262 262 263 264 265 266 267 267 267 266 266 265 264 266 267 266 263 263 263 264 265 265 265 264 265 266 266 266 267 267 268 268 268 268 269 269 270 271 271 271 272 272 272 272 273 273 273 274 274 274 274 273 272 272 272 272 271 272 272 271 271
255 255 255 256 255 256 256 256 257 257 257 258 258 258 259 260 260 260 260 261 261 262 262 262 261 260 261 261 262 263 264 265 266 265 264 263 263 263 264 266 263 261 262 263 263 264 264 264 264 264 264 265 265 265 266 267 267 267 268 268 269 270 271 271 271 271 271 271 271 270 271 271 271 271 270 270 270 270 269 269 269 269 269 269 269 268 267
254 255 255 255 255 256 255 255 255 256 257 257 258 258 259 260 260 260 259 260 260 261 260 260 259 260 260 261 262 263 264 264 264 263 262 261 261 262 262 262 264 261 261 262 262 263 263 263 263 263 263 264 264 265 265 266 266 267 268 269 270 270 270 270 270 270 270 270 270 270 270 270 269 269 269 268 268 268 268 268 267 267 267 267 266 266 266
254 255 254 254 254 255 255 255 256 255 256 257 258 258 259 259 259 258 259 259 258 258 258 258 260 260 261 261 261 261 261 262 262 261 261 260 260 260 260 261 263 261 262 262 262 263 262 262 263 263 263 263 264 264 265 266 267 268 268 268 268 268 268 268 268 268 268 268 269 269 269 269 268 267 267 267 267 266 266 266 265 265 265 265 265 265 265
253 253 253 253 253 254 254 254 255 255 256 257 258 258 259 259 258 258 257 257 257 257 257 257 258 259 258 258 259 259 260 261 260 260 260 261 259 259 259 259 261 261 262 261 261 262 262 262 262 262 262 263 263 264 265 265 265 265 265 265 266 266 266 266 266 266 267 267 267 267 267 267 267 266 266 265 265 265 265 265 264 264 264 264 264 264 264
252 253 253 253 254 255 256 256 256 256 255 257 258 258 258 257 257 257 257 257 257 257 257 256 257 256 257 257 257 258 259 260 259 259 259 260 262 260 260 259 260 261 261 260 260 260 261 261 261 261 262 262 263 263 264 264 264 264 263 263 263 263 263 263 263 263 263 263 264 264 264 265 265 265 265 264 264 264 264 264 264 264 264 263 264 264 263
252 253 254 254 255 256 256 256 255 255 256 257 258 258 258 257 257 257 257 257 257 257 257 256 256 256 256 256 256 257 259 259 259 258 257 257 258 260 261 260 260 260 260 260 260 260 260 260 260 261 261 262 262 262 263 262 263 262 262 262 262 262 262 262 262 262 262 262 262 262 262 262 262 262 262 262 262 262 262 262 262 262 262 262 262 262 262
253 254 255 257 256 255 256 256 256 256 256 257 257 258 258 258 258 259 258 258 257 257 257 257 256 256 256 255 256 257 258 260 260 259 258 258 256 257 259 259 259 259 259 259 259 259 259 260 260 260 261 261 261 261 261 261 261 261 261 261 261 261 261 261 261 261 261 261 261 261 261 261 261 261 261 261 261 261 261 261 261 260 260 260 261 261 261
253 254 255 255 255 256 255 255 256 256 256 256 257 257 258 258 259 259 260 260 259 258 257 257 256 256 257 256 256 256 256 257 259 261 258 258 259 259 259 259 259 259 259 259 258 258 259 259 259 260 260 260 260 260 260 260 260 260 260 260 260 260 260 260 260 260 260 261 261 261 261 261 260 260 261 260 260 260 260 260 260 260 260 260 260 260 260
254 254 255 255 256 256 255 255 255 256 255 257 256 256 257 258 258 259 259 259 259 259 259 258 257 257 257 257 257 257 257 256 255 259 259 257 258 258 258 258 258 258 258 259 258 259 259 259 259 259 259 260 260 259 259 259 259 259 259 259 259 259 259 259 259 259 260 260 260 260 260 259 260 260 260 259 259 260 260 260 260 259 260 260 259 260 260
255 255 256 257 257 256 256 256 256 257 257 257 256 257 257 257 257 259 259 259 258 258 259 259 258 258 257 258 258 257 258 258 257 256 258 258 257 257 258 258 258 258 258 258 258 258 258 258 258 258 259 259 258 258 258 258 258 258 258 258 259 259 259 259 259 259 259 259 259 259 259 259 259 259 259 259 259 259 259 259 259 259 259 259 259 259 259
258 258 259 259 259 259 258 258 258 258 257 257 256 257 257 257 257 259 259 258 257 257 258 259 259 258 258 257 258 258 258 257 257 258 258 258 257 257 257 257 258 258 258 257 257 257 258 258 258 258 258 258 258 258 258 258 258 257 258 258 258 258 258 258 259 259 258 259 259 259 258 258 259 259 259 259 259 259 259 259 259 259 259 259 259 259 259
259 259 259 260 260 259 258 258 258 257 256 256 256 256 256 256 257 257 258 257 256 256 256 257 258 258 257 257 257 257 257 257 257 257 257 257 257 257 257 257 257 257 257 257 257 257 257 257 257 257 257 258 258 258 257 257 257 257 257 257 257 257 257 258 258 258 258 258 258 258 258 258 258 258 258 258 258 258 258 258 258 258 258 258 258 258 258
258 259 259 260 259 258 258 258 258 256 256 256 256 256 256 256 256 256 257 257 255 255 255 254 255 258 257 256 256 256 257 257 257 257 257 257 257 257 257 257 257 257 257 257 257 257 257 257 257 257 257 257 257 257 257 257 257 257 257 257 257 257 257 257 257 257 257 257 257 257 257 257 258 258 258 258 258 258 258 258 258 258 258 258 258 258 258
Wind_Speed
12 10 4 5 6 7 8 10 12 15 15 14 12 13 13 13 9 7 5 8 13 20 25 21 20 18 15 18 18 16 15 14 14 15 17 18 17 15 13 13 12 11 10 10 12 14 14 13 13 12 10 11 10 8 6 6 6 6 4 4 5 5 6 7 8 7 6 5 5 6 6 7 7 8 9 9 9 9 9 9 9 10 10 10 9 9 9
13 12 12 6 4 5 8 10 9 9 11 13 15 14 16 17 14 15 16 16 20 20 24 24 20 21 18 18 19 17 18 15 14 15 16 16 15 13 14 14 13 12 12 13 14 14 14 14 15 14 12 11 11 12 11 8 7 4 3 4 5 5 6 7 6 5 6 6 5 6 6 7 8 8 8 7 7 8 9 9 8 7 8 8 8 10 11
10 12 12 14 13 10 11 11 11 10 9 10 10 12 14 15 19 20 20 20 20 16 19 25 24 18 16 17 22 23 18 13 12 15 16 15 14 14 14 13 13 12 12 12 13 13 12 12 14 15 14 13 12 10 9 9 8 3 3 4 5 5 6 6 6 5 6 6 6 8 8 7 7 7 7 6 7 7 8 8 8 7 6 8 10 11 11
8 7 10 11 11 11 13 10 10 10 11 11 13 13 14 15 15 15 15 17 16 15 19 20 24 21 18 21 22 20 16 14 15 16 17 15 12 12 13 13 13 14 12 12 13 13 12 12 14 15 14 12 11 11 9 9 8 2 3 4 5 6 6 6 6 6 6 7 7 8 7 8 7 5 5 6 8 9 9 9 9 5 8 11 10 10 10
8 8 8 9 6 5 10 13 12 14 18 18 17 17 15 16 14 15 13 16 16 16 12 15 20 26 25 19 17 16 18 18 15 18 20 17 12 9 9 10 10 12 14 14 13 11 12 14 16 11 6 9 12 12 11 9 7 5 6 5 5 6 6 6 6 6 7 7 8 9 9 8 7 4 6 8 10 9 11 8 5 9 12 10 11 10 10
5 6 4 4 5 13 11 6 18 20 19 17 19 16 16 18 17 15 14 15 13 12 13 17 20 23 24 21 20 16 14 14 18 19 19 16 12 12 12 11 11 12 12 10 10 13 17 15 5 3 6 8 10 10 10 9 7 7 7 7 5 6 6 7 7 7 8 8 9 9 7 6 6 6 8 11 10 9 8 7 9 10 10 11 10 10 12
8 3 6 5 12 9 5 12 10 12 17 19 19 20 22 21 19 19 20 20 19 18 17 19 23 25 28 27 26 24 19 16 16 19 20 19 17 17 15 13 12 10 10 10 10 9 7 5 4 6 6 8 8 8 7 8 7 7 7 7 7 6 7 7 7 8 8 8 8 7 5 5 6 8 9 10 10 10 9 10 11 12 11 11 12 11 11
4 6 6 9 3 2 7 10 11 12 13 13 16 20 21 19 18 17 18 18 20 21 22 23 23 24 26 24 21 20 20 18 17 19 19 19 18 17 14 14 12 10 7 7 7 7 5 5 6 6 7 7 7 8 6 7 9 8 8 8 8 7 8 8 8 9 9 9 8 6 6 6 8 9 9 10 10 7 7 8 8 7 9 10 12 11 9
8 8 11 10 5 11 13 11 12 16 16 16 14 11 12 14 16 18 19 21 22 23 23 23 22 20 18 18 19 19 20 12 9 15 19 20 16 10 9 9 9 8 8 8 9 8 7 7 7 8 7 7 8 8 7 6 7 8 8 9 9 9 9 8 8 9 8 7 7 7 6 7 9 10 10 10 9 6 8 9 8 9 11 9 8 8 9
7 7 8 7 7 9 12 20 16 10 11 10 9 10 12 12 16 17 20 22 22 23 22 20 18 14 14 17 17 14 10 10 10 8 6 9 9 8 8 9 9 8 8 8 8 7 8 8 7 6 7 9 9 9 8 6 6 7 8 9 9 9 10 9 9 9 8 7 8 8 7 9 10 9 9 5 6 4 8 9 10 11 8 8 9 9 10
8 9 10 9 9 11 15 1 11 8 9 11 8 6 12 12 20 20 19 19 19 18 17 17 13 12 12 14 15 4 7 7 6 7 8 9 8 7 7 7 8 9 9 8 7 6 6 7 9 9 9 10 10 10 9 8 7 7 8 9 8 9 10 9 9 9 7 7 8 8 9 9 8 8 6 6 5 4 7 8 10 8 6 9 8 8 9
12 10 9 10 6 11 12 5 5 7 6 6 5 7 8 17 18 11 14 17 17 16 16 15 15 12 12 14 7 7 7 6 6 5 7 7 8 7 7 6 7 7 6 7 8 8 9 9 9 9 9 10 10 10 10 9 8 8 8 9 9 9 9 9 9 9 7 8 8 8 9 9 7 8 4 4 4 5 7 7 8 8 6 8 9 8 6
13 14 11 8 8 13 21 9 6 8 5 6 7 13 15 3 7 3 1 3 6 10 13 12 13 7 4 5 4 5 6 6 6 6 4 4 5 6 7 7 7 5 6 6 7 8 8 8 7 7 8 9 10 10 10 10 11 10 10 10 9 9 9 9 9 9 8 8 10 9 7 7 6 5 4 4 4 5 6 5 6 7 8 7 8 8 6
14 12 11 10 9 17 19 3 13 11 6 6 13 12 3 6 5 8 4 2 4 5 5 6 4 4 5 5 5 6 6 6 6 7 7 6 5 3 2 2 4 6 6 7 7 8 7 7 6 6 8 9 10 10 11 12 11 11 11 12 12 11 11 10 10 10 10 9 6 6 5 5 6 7 4 4 5 5 4 5 7 9 7 7 7 8 6
8 9 11 8 10 10 8 17 12 12 9 6 3 5 4 7 6 6 6 5 6 5 4 5 4 4 5 6 7 7 7 7 7 8 8 8 8 10 11 10 6 6 8 9 9 9 10 8 6 6 6 7 9 9 11 13 12 11 12 12 13 13 12 12 10 10 8 8 8 5 6 5 6 8 5 4 5 5 6 6 7 9 8 7 7 8 7
10 12 12 12 15 3 13 12 5 8 14 2 5 2 4 5 3 5 4 6 5 3 4 4 5 5 6 7 7 8 7 5 6 7 6 5 6 6 6 5 7 7 7 8 10 10 9 9 7 6 7 8 9 9 13 11 10 11 12 12 12 12 10 11 10 9 9 9 8 6 6 6 5 6 5 4 5 5 5 6 7 8 7 6 6 9 10
10 11 13 14 11 7 2 1 2 3 4 4 4 4 2 4 3 2 1 4 4 5 3 4 4 4 4 5 6 7 9 8 7 8 8 8 8 8 10 10 5 3 7 10 10 11 10 10 9 7 5 7 8 11 12 10 11 12 13 12 12 12 12 11 11 10 9 8 8 7 6 5 6 6 6 5 6 5 5 7 7 7 7 6 8 9 8
11 10 8 8 6 8 7 2 3 4 5 2 3 4 3 3 2 2 1 3 5 4 3 5 5 5 7 7 7 9 10 10 10 7 8 9 8 8 9 9 10 9 8 6 7 11 12 9 10 7 5 4 8 11 11 10 10 10 10 12 13 13 12 11 11 11 11 10 8 8 7 5 6 5 5 4 5 5 6 7 7 8 8 7 8 8 9
6 9 13 16 16 8 3 7 4 5 5 2 1 2 2 5 4 4 4 4 4 4 3 2 5 7 7 7 6 6 8 9 11 11 10 12 12 12 12 12 10 11 9 12 12 11 12 10 9 9 7 6 6 8 8 11 9 9 10 11 12 12 12 12 11 10 11 10 9 7 5 5 5 5 5 6 6 6 6 6 7 8 9 8 8 8 9
12 10 6 3 2 5 4 2 2 3 5 4 4 4 4 4 3 1 1 1 3 1 2 5 4 7 8 7 8 8 8 8 9 10 11 12 13 13 11 10 8 8 8 8 10 11 13 12 11 10 9 9 8 7 6 7 8 9 10 9 10 11 13 12 11 10 10 12 11 8 7 5 6 5 6 6 7 8 7 7 7 8 8 8 9 9 8
11 11 6 3 1 3 4 4 5 4 5 7 6 4 5 3 3 2 0 2 2 4 5 5 5 5 6 7 8 9 8 9 10 10 11 12 11 12 13 11 7 8 9 10 10 10 12 11 10 9 9 8 8 7 6 6 6 8 9 11 10 11 10 9 10 9 9 8 8 8 8 7 7 7 7 6 8 7 7 7 7 8 7 9 8 7 8
11 12 9 6 6 5 3 7 6 6 6 6 6 5 4 1 1 2 4 4 3 3 5 6 5 7 8 8 8 9 9 10 11 11 12 11 12 12 11 11 8 9 9 10 13 12 12 10 8 8 8 7 7 6 5 4 4 7 9 10 10 9 8 8 8 8 8 9 8 8 7 8 9 9 10 13 10 7 6 10 15 14 11 10 7 5 8
9 9 10 6 8 4 5 9 7 7 5 5 3 2 2 3 2 2 4 5 6 5 5 4 6 7 8 10 9 10 9 10 10 10 12 12 12 11 11 10 11 9 10 10 10 12 12 8 7 8 9 8 8 6 4 4 4 7 8 9 9 9 8 8 8 9 10 10 9 8 8 8 8 9 10 7 14 18 14 10 10 13 15 16 15 13 9
4 5 3 2 0 2 6 5 6 4 3 3 6 6 4 2 2 4 5 6 7 8 6 6 6 8 10 10 10 13 12 11 12 12 11 11 11 12 10 10 11 11 11 10 10 11 9 7 9 9 9 8 8 8 5 4 4 6 7 8 8 9 9 10 10 9 9 9 9 9 9 7 8 8 8 11 9 10 16 15 13 12 12 13 15 15 16
4 4 5 5 5 4 4 5 6 7 6 6 3 1 2 3 3 3 5 6 6 8 8 8 7 7 10 11 11 12 13 12 10 11 11 12 11 10 11 9 9 10 11 9 8 7 7 9 10 10 10 9 7 6 3 3 3 6 7 8 9 9 9 10 10 10 9 9 9 9 9 8 8 7 9 8 9 10 6 11 14 13 12 12 12 14 15
7 3 4 3 2 2 4 7 6 4 4 4 3 3 3 3 4 4 6 6 6 6 8 9 9 9 8 10 9 11 11 12 11 11 11 11 11 9 8 9 10 8 9 7 8 9 10 11 12 12 12 10 7 5 3 3 4 6 8 8 10 9 9 10 11 10 9 10 10 9 8 8 8 9 9 9 10 10 10 7 6 9 11 13 13 12 14
8 6 3 2 2 5 6 4 1 4 5 4 4 4 5 6 5 5 6 6 6 8 8 8 8 7 7 5 8 9 9 11 10 11 11 11 10 11 10 7 11 12 14 14 12 12 14 14 13 12 11 8 5 3 2 2 4 6 7 9 9 10 15 12 10 10 9 9 9 9 9 8 8 8 9 9 8 10 9 9 9 9 7 7 11 14 12
7 8 8 1 2 3 4 4 2 4 4 5 5 6 8 8 7 7 7 6 4 3 4 5 7 7 9 9 9 10 9 11 12 13 12 12 10 10 10 13 16 15 15 15 14 13 13 14 13 12 8 4 3 2 2 3 4 6 7 8 9 9 9 10 10 9 9 9 8 8 8 8 8 9 9 9 9 9 9 9 10 9 8 7 5 7 13
6 6 5 2 3 5 5 5 5 5 5 5 7 6 6 7 8 7 7 7 7 7 7 5 4 5 7 9 9 12 11 11 12 12 12 12 12 12 14 14 14 14 13 13 12 11 11 11 11 11 10 4 3 2 3 5 5 6 7 7 8 9 9 9 10 10 10 10 9 9 9 9 9 10 9 9 8 8 8 9 9 9 9 7 3 4 4
4 4 5 6 6 6 6 6 6 5 4 5 7 6 6 8 8 5 6 8 6 7 7 6 5 6 7 10 10 10 12 13 13 12 12 13 12 12 14 14 15 14 11 11 10 11 13 13 13 13 10 6 5 5 7 6 6 7 8 9 9 9 9 9 10 11 10 10 10 12 10 9 8 8 9 9 8 8 8 9 9 9 8 7 6 8 7
6 5 5 5 6 5 6 6 5 5 4 4 7 9 10 6 6 7 7 7 5 6 5 6 9 11 10 9 9 9 11 12 13 13 13 12 12 12 13 12 12 13 13 13 13 12 12 13 13 13 12 10 9 8 9 7 6 7 7 7 8 12 17 18 15 11 10 10 10 10 9 9 9 8 9 9 8 8 8 8 8 8 7 8 7 7 7
11 6 2 3 3 5 5 4 6 6 6 7 8 9 9 8 9 8 7 7 7 8 10 11 11 11 10 9 11 12 12 13 13 13 12 11 11 11 9 9 11 12 13 12 10 11 13 14 16 14 11 11 11 9 9 7 7 7 8 8 9 8 9 14 11 11 10 10 10 9 10 10 10 8 9 8 9 9 8 8 8 8 7 8 6 6 5
8 12 7 5 9 3 2 3 4 4 5 8 8 8 8 7 7 8 9 9 10 8 9 10 10 10 10 11 12 12 13 13 13 12 11 10 8 8 9 10 11 13 13 11 10 11 13 14 14 11 9 9 8 8 8 8 8 8 8 7 8 9 9 10 11 11 10 10 9 9 9 9 9 9 10 8 8 7 8 8 8 8 8 7 8 7 5
2 2 4 4 3 7 7 6 4 6 6 7 7 8 8 8 8 8 8 9 9 11 9 9 9 11 11 11 12 12 13 13 12 10 9 11 11 10 10 11 11 13 13 12 12 11 10 10 8 7 6 6 8 7 8 8 8 8 8 8 8 8 8 8 9 9 9 10 9 10 10 9 10 10 9 9 8 8 8 8 7 7 7 7 6 2 2
3 5 6 7 7 7 7 6 6 7 7 8 8 7 8 9 9 10 10 10 10 10 10 10 10 10 11 11 11 11 11 12 13 14 14 12 12 12 11 12 13 13 13 11 10 11 7 6 6 6 7 7 7 7 8 9 9 9 9 9 9 9 8 9 8 8 9 9 9 10 10 10 9 8 9 9 9 7 7 6 8 6 6 7 4 0 3
6 6 7 6 6 7 8 8 7 8 9 9 9 9 9 9 11 11 12 11 10 11 11 11 11 11 11 11 11 11 11 12 13 14 14 12 12 12 12 13 14 14 14 14 7 4 8 7 8 9 9 8 8 8 9 8 9 9 9 9 9 9 9 9 9 9 8 9 9 8 9 10 10 9 8 8 8 8 8 7 7 6 6 6 3 3 3
4 6 7 8 8 8 9 9 9 9 9 10 10 11 12 11 11 12 11 11 11 10 11 11 11 12 12 11 11 12 11 11 11 12 12 12 12 11 13 14 14 14 12 12 4 6 8 7 11 14 11 8 8 9 8 9 7 8 8 9 9 9 9 9 8 8 8 7 7 8 8 8 9 9 7 7 7 8 7 7 4 4 5 3 2 3 2
5 6 7 8 8 9 9 9 9 10 11 14 13 11 12 12 12 11 11 10 10 11 11 11 12 12 12 12 12 12 12 11 12 13 14 12 11 15 16 13 12 11 9 7 8 8 7 9 12 10 8 8 8 9 10 13 14 10 8 8 8 9 9 9 8 8 7 7 6 7 7 6 7 7 7 7 6 6 5 4 2 2 2 1 2 1 1
8 6 6 7 7 9 11 10 9 9 10 14 14 12 11 12 13 12 12 12 11 11 12 12 11 12 12 12 12 12 12 12 12 13 14 14 13 12 12 12 11 6 4 8 8 8 8 9 10 9 8 8 10 10 11 12 13 9 8 8 9 8 9 8 8 8 7 7 7 6 6 6 6 5 4 3 3 2 2 2 2 1 2 0 1 2 2
7 6 8 8 8 8 9 9 9 10 10 10 11 13 12 12 12 12 12 13 11 11 12 13 14 13 14 13 13 13 12 12 12 13 13 12 10 10 10 6 3 4 7 10 9 8 10 14 11 7 7 8 9 9 9 11 12 9 8 8 7 7 7 7 7 7 7 6 6 6 5 5 4 3 1 1 1 1 1 2 3 2 2 3 4 4 4
8 7 7 7 9 8 9 10 10 10 10 12 11 11 10 11 12 12 12 13 12 11 12 12 13 13 14 14 15 15 14 12 11 10 8 7 7 7 6 8 3 4 6 8 8 9 10 9 7 7 7 8 8 9 9 12 9 7 7 7 7 7 7 7 6 6 6 5 4 5 4 3 2 1 1 1 2 2 2 3 3 3 3 3 4 4 5
8 7 8 8 8 8 9 9 9 10 11 10 10 10 10 10 10 10 10 9 10 10 10 10 12 13 13 13 12 12 12 11 7 5 5 5 5 5 6 6 6 6 11 12 10 9 7 7 7 7 7 8 8 12 14 9 6 6 6 6 5 6 5 6 5 5 5 5 5 4 3 3 2 2 2 2 3 3 4 5 5 5 4 4 5 5 5
6 7 8 8 8 8 8 8 9 10 11 11 10 9 9 8 7 7 7 7 8 8 9 9 10 10 10 9 10 10 9 6 5 7 6 5 4 1 3 6 7 7 14 10 9 7 7 6 7 6 12 12 10 14 10 5 5 6 6 6 7 7 7 7 7 7 7 6 6 6 5 5 4 4 4 4 4 4 4 4 5 4 4 5 5 4 5
7 7 7 8 8 8 7 7 8 8 8 9 7 7 7 6 5 5 6 6 7 6 7 8 8 8 9 9 9 8 7 8 7 7 7 8 2 4 2 5 7 10 14 10 8 7 7 7 7 12 16 16 15 14 7 4 4 4 5 5 6 6 7 7 8 8 8 8 8 8 7 7 6 6 6 5 5 6 6 6 6 5 5 5 6 5 5
9 9 9 9 10 8 5 5 6 7 8 9 9 7 6 4 4 5 5 5 6 8 7 7 8 8 8 8 7 8 8 7 6 6 7 7 8 5 8 10 8 8 9 12 7 7 7 8 12 17 14 16 15 13 6 6 6 6 6 5 6 6 6 6 6 6 7 7 7 7 8 8 7 8 7 7 7 7 7 6 6 6 5 6 6 6 6
10 10 10 8 7 7 6 5 6 6 7 6 6 4 2 5 7 6 5 6 7 7 7 8 8 9 9 9 9 9 9 6 5 3 2 3 4 7 8 9 8 8 13 12 6 7 7 14 16 15 15 13 12 7 6 7 6 6 6 6 6 6 6 6 6 6 6 6 6 6 6 5 6 7 7 7 7 7 7 8 7 7 6 6 6 6 5
9 8 8 8 8 6 6 6 7 5 4 4 6 6 6 8 8 7 7 7 6 7 7 6 7 8 9 9 8 7 7 7 6 2 2 4 5 6 8 10 9 11 11 7 7 7 9 11 13 15 14 12 10 7 7 7 7 7 7 7 7 7 6 6 7 7 7 7 7 7 8 8 7 6 6 6 6 6 6 6 6 6 6 6 6 6 7
6 7 7 7 8 8 5 6 5 3 4 4 4 6 6 7 8 7 6 6 7 8 6 5 5 6 8 8 7 5 4 5 7 4 3 5 5 5 5 5 7 11 11 7 9 9 15 16 15 15 15 13 7 6 7 7 7 7 7 8 8 7 7 7 7 7 7 7 7 7 7 7 6 6 6 6 6 6 6 6 6 6 6 6 6 6 6
6 7 8 7 5 6 4 3 3 3 2 2 4 3 4 7 8 5 4 5 7 6 6 6 6 6 6 6 6 4 4 3 3 4 6 6 6 6 5 6 9 10 8 6 7 6 11 15 14 15 14 10 8 7 7 7 8 8 8 8 7 8 8 7 7 7 7 7 7 7 6 7 7 7 6 6 6 6 6 7 7 6 6 6 6 7 7
3 2 2 1 2 2 2 3 2 2 2 3 3 3 4 5 3 3 4 4 4 5 5 5 4 4 5 5 4 4 4 4 4 5 5 5 6 6 6 6 6 9 9 6 6 6 8 11 11 12 10 8 8 8 8 8 8 8 7 8 7 6 8 8 8 9 7 7 8 7 7 7 7 7 7 6 6 6 6 6 6 7 10 7 6 6 6
1 2 2 2 2 2 3 4 4 2 2 3 3 4 4 3 4 4 4 4 4 4 4 4 4 2 3 4 4 4 4 5 5 5 5 5 5 5 6 6 6 6 6 5 5 5 5 6 7 8 8 7 6 6 7 7 7 7 8 7 8 7 7 7 7 7 7 7 6 7 7 7 7 7 6 6 6 6 6 6 6 6 5 5 5 4 4
5 4 4 3 3 2 3 3 2 2 1 2 2 2 2 3 4 4 3 3 3 3 4 5 5 3 3 5 5 4 4 5 4 4 4 4 4 4 5 6 4 4 5 4 4 5 5 6 6 7 8 6 5 5 6 7 6 6 6 6 6 6 6 6 6 5 6 6 6 6 6 6 6 6 6 6 6 5 5 5 5 5 5 5 4 4 4
Wind_Direction
232 236 163 123 192 208 219 214 215 216 218 219 220 226 236 242 237 256 254 252 255 258 265 269 277 290 292 290 289 290 292 293 291 288 290 293 291 286 284 282 281 279 269 277 293 306 305 294 293 297 298 299 298 292 270 260 254 239 227 227 241 242 246 252 255 258 256 249 248 248 240 242 240 239 241 240 240 237 231 226 221 224 225 223 220 219 218
232 236 239 176 156 223 226 232 230 232 225 227 233 238 235 231 238 244 244 244 245 254 269 278 277 284 288 288 288 282 275 278 284 279 273 274 282 281 278 276 272 276 277 283 294 294 289 291 297 301 298 295 299 304 308 302 284 264 175 230 241 244 244 249 253 250 248 244 238 243 247 244 245 247 249 253 257 252 246 240 229 219 223 224 222 222 222
238 242 244 246 243 232 240 241 244 247 258 265 258 250 243 241 241 240 243 247 254 254 265 274 276 273 284 286 283 282 289 289 276 278 283 278 268 269 271 273 274 279 282 283 285 283 283 295 304 307 307 303 304 307 309 306 303 280 181 231 235 237 250 249 252 244 240 241 237 236 232 235 239 244 248 254 256 256 255 253 245 232 222 224 224 225 224
240 233 236 239 242 244 246 250 247 245 243 243 231 234 229 236 243 246 248 251 253 255 253 262 277 280 268 269 273 282 290 289 291 289 284 280 267 264 267 273 278 278 279 282 283 284 292 300 303 302 304 312 316 311 308 307 306 269 205 225 243 245 245 257 255 250 242 243 237 240 229 228 228 237 250 250 248 245 247 249 250 254 236 230 229 226 225
238 228 215 226 229 242 247 235 232 233 235 232 237 238 239 242 247 252 242 242 241 250 264 275 279 283 281 274 274 280 286 289 288 290 290 291 302 298 273 270 269 273 277 279 280 288 294 294 289 299 330 320 310 308 305 301 299 277 260 236 241 249 246 246 248 244 242 240 242 242 238 238 228 215 226 236 243 242 240 240 246 238 242 239 235 232 229
231 236 215 216 221 231 231 197 217 219 228 231 238 242 242 241 232 239 242 255 265 270 267 267 270 273 276 278 278 275 279 290 292 287 286 297 305 300 287 282 277 272 270 273 281 285 285 290 321 2 314 297 290 290 292 293 286 280 267 260 234 247 248 248 246 239 234 233 238 247 248 235 224 230 228 233 232 232 239 232 229 241 243 240 241 234 232
230 129 117 211 228 237 234 237 241 233 236 238 243 245 241 242 244 248 253 258 263 266 267 265 264 264 269 271 272 276 278 278 279 286 294 298 297 287 287 289 285 278 278 282 282 290 312 336 320 304 292 278 284 292 305 308 307 295 280 264 253 245 251 248 244 243 237 229 238 249 241 231 226 236 243 252 243 233 220 222 222 226 230 233 234 233 233
245 225 187 231 220 207 240 252 244 239 243 239 239 244 244 248 251 254 257 256 255 254 251 249 250 257 265 273 278 282 281 276 277 280 280 281 280 286 291 287 296 314 325 322 320 319 339 329 310 296 287 295 298 296 311 302 301 296 290 282 272 253 245 243 240 245 246 249 249 241 230 221 226 238 240 241 251 265 266 257 247 242 242 234 235 230 231
219 222 231 233 315 303 269 260 233 211 209 211 216 245 244 239 242 241 246 246 245 246 248 250 253 261 272 279 282 277 281 295 270 259 265 268 283 304 322 347 357 355 345 341 349 348 336 324 313 300 303 311 308 306 308 299 291 292 287 281 275 270 269 263 257 257 256 261 265 257 245 237 235 238 241 244 243 231 242 247 251 244 240 240 246 240 230
209 234 242 245 232 248 247 228 235 215 211 216 216 226 260 250 246 238 236 238 242 246 250 254 260 266 271 271 274 288 23 14 15 353 360 20 29 19 360 351 351 356 354 348 339 332 317 309 307 320 329 326 318 309 304 297 291 286 282 279 285 287 285 284 282 283 276 258 258 255 247 244 244 243 236 235 237 211 229 243 242 244 246 247 239 234 229
209 222 234 232 233 240 244 140 95 133 179 188 211 227 254 249 247 235 237 243 246 249 254 260 262 256 254 259 264 22 31 30 16 3 12 11 12 6 4 354 348 345 338 330 316 314 318 320 330 334 330 327 321 314 307 302 294 288 287 290 291 292 291 293 291 288 285 271 259 256 253 254 253 257 249 239 231 208 228 234 246 250 240 245 247 238 233
226 227 227 240 224 252 249 189 231 180 183 179 168 238 253 241 250 246 239 242 248 253 256 257 257 254 254 259 286 25 21 31 33 11 1 354 355 351 355 0 355 324 314 322 333 336 328 324 330 336 336 329 320 312 311 308 300 296 301 309 312 309 304 299 296 290 288 280 268 260 258 259 255 251 253 248 234 230 234 231 244 243 240 240 245 247 243
225 230 242 249 261 250 261 240 133 127 147 160 207 224 241 297 44 45 339 262 258 263 260 253 256 271 342 12 6 358 21 18 12 7 8 338 324 340 345 343 328 332 336 326 318 316 314 318 327 334 336 331 322 320 315 313 310 315 319 317 313 312 308 303 299 295 291 286 279 266 254 259 260 254 238 234 235 233 242 240 239 244 238 240 241 247 235
221 218 233 242 273 272 254 62 139 134 137 188 222 235 348 349 343 79 49 73 41 26 47 42 26 15 351 1 9 358 359 10 348 351 343 334 322 306 282 304 339 337 327 319 319 321 320 329 331 339 338 328 319 319 319 312 313 323 328 325 320 314 308 304 304 303 300 293 281 274 270 261 264 259 239 225 231 230 238 242 243 246 242 239 242 246 239
229 219 223 228 255 265 120 126 171 162 193 238 258 2 34 51 41 37 59 34 35 23 42 40 21 3 352 338 342 347 337 348 346 336 337 337 334 331 336 336 345 350 334 332 328 324 326 335 341 336 339 327 319 318 312 308 317 326 327 323 319 316 311 308 303 297 294 290 283 274 267 254 251 260 249 230 227 224 232 239 244 250 247 244 246 250 249
196 201 203 215 218 73 130 152 169 165 211 297 56 345 308 75 47 30 28 42 13 3 12 11 352 351 340 331 338 334 328 333 333 314 309 312 312 306 306 298 311 333 327 327 326 322 322 323 331 336 340 329 323 316 302 313 325 325 324 323 320 313 307 302 299 295 290 286 278 269 262 255 250 254 256 245 242 227 217 230 243 246 247 241 244 251 251
195 200 213 227 242 252 330 37 308 85 105 63 66 82 58 112 82 29 31 21 7 345 337 328 324 322 334 325 329 319 315 318 317 318 313 312 310 305 312 315 321 327 329 322 321 315 318 322 324 331 336 328 320 316 314 328 328 327 324 322 317 312 311 308 303 298 292 285 280 268 254 237 241 246 245 234 243 235 221 227 230 247 252 236 239 246 251
215 263 266 261 260 265 266 134 111 95 100 80 92 114 129 111 145 129 124 323 337 335 337 335 332 329 321 331 327 318 315 314 304 291 298 310 309 303 305 314 328 329 321 314 313 315 316 321 320 324 333 338 319 308 316 323 323 325 322 318 314 311 311 309 307 307 301 293 276 265 257 237 229 226 233 229 233 237 227 234 230 230 243 243 246 246 249
193 240 234 239 252 254 282 268 131 106 74 113 123 83 51 115 145 150 188 170 217 253 337 299 281 305 321 321 307 292 296 305 311 311 315 314 313 316 318 318 329 326 332 327 324 320 313 315 316 319 325 327 313 314 319 320 323 323 318 311 307 309 311 312 310 310 304 300 301 288 254 253 236 223 215 220 226 232 228 227 233 240 238 233 240 248 252
212 231 64 26 349 255 261 264 201 120 110 91 60 57 51 73 74 12 311 85 274 248 292 268 302 316 319 310 305 306 300 296 305 309 307 310 311 307 305 307 313 311 313 312 310 311 310 313 319 321 324 323 324 321 315 314 317 317 309 309 309 310 311 310 307 308 305 300 297 290 280 254 257 246 222 213 220 222 216 216 228 235 236 240 239 236 246
234 256 240 198 195 250 228 198 68 67 106 111 91 79 69 41 26 322 117 179 294 329 301 312 305 284 270 277 284 288 290 291 293 300 304 302 301 301 305 308 311 304 308 306 297 295 293 300 307 310 311 312 314 309 304 305 306 305 303 306 304 302 303 304 303 304 299 298 294 292 291 282 260 256 256 232 227 230 215 214 216 226 230 237 240 243 242
223 224 229 188 242 242 197 82 105 97 95 99 101 95 89 116 149 18 354 326 301 273 276 272 270 273 282 284 287 283 285 289 293 296 299 299 298 300 300 301 305 303 296 291 294 293 289 292 294 294 297 299 295 290 291 288 290 297 303 307 306 305 305 303 302 308 312 309 304 295 287 285 287 278 259 254 251 237 233 204 218 220 219 234 227 227 242
241 245 240 207 226 256 68 115 87 86 89 89 124 116 65 53 47 10 320 292 290 284 276 262 265 275 282 286 289 286 285 287 287 288 292 298 297 297 302 303 300 293 286 284 280 281 281 282 283 294 298 299 297 296 294 291 296 295 302 304 303 303 306 303 308 311 307 304 305 301 296 292 288 288 295 268 248 249 244 231 213 217 224 231 235 234 232
258 87 98 25 125 135 115 116 125 129 115 101 99 91 83 38 326 306 289 284 286 288 289 291 284 279 279 283 286 285 285 283 287 288 286 288 294 298 297 288 285 285 283 279 274 272 278 287 293 294 295 296 298 301 302 295 292 293 294 296 296 300 303 301 303 300 298 296 297 296 295 291 288 292 288 291 289 246 245 241 232 226 222 226 230 232 234
263 38 61 62 76 94 131 139 125 113 106 96 87 32 325 308 293 294 293 285 280 278 282 286 289 289 288 285 285 284 285 287 288 293 294 291 287 285 283 281 276 275 277 277 279 285 290 292 293 293 294 294 293 292 283 281 286 288 287 288 291 295 295 296 296 296 296 296 296 294 294 293 291 283 282 285 286 298 264 247 244 230 223 224 227 232 232
67 48 56 112 128 131 134 108 99 99 56 37 22 343 330 310 298 287 285 288 290 300 293 288 288 288 286 290 295 295 294 291 295 296 295 293 294 292 288 283 286 293 296 300 297 292 291 290 292 295 296 297 298 298 297 284 283 284 287 287 288 289 294 295 293 290 288 288 290 290 287 287 285 285 281 277 282 283 288 284 264 258 243 228 221 223 231
53 26 11 36 86 110 63 69 14 8 344 346 332 317 331 347 355 349 336 322 296 276 268 272 279 289 299 294 289 285 289 296 297 292 291 293 295 295 303 317 320 313 307 300 295 294 296 296 295 293 293 297 293 300 291 291 284 283 281 283 283 286 284 279 279 282 281 280 281 281 282 281 282 281 278 279 275 276 274 274 275 268 269 254 226 211 216
57 34 28 37 3 38 3 354 301 299 326 330 344 20 35 18 359 340 320 305 295 309 316 318 314 315 309 307 310 304 303 300 297 298 298 296 303 310 314 311 306 302 300 299 297 300 297 294 293 293 294 297 315 30 10 311 279 272 275 276 283 288 292 285 281 282 283 282 277 275 279 278 279 277 279 279 276 273 271 269 270 274 276 261 265 221 211
40 31 23 20 312 306 308 317 318 322 328 25 41 30 16 355 323 296 282 287 290 294 287 293 305 311 309 310 313 303 298 295 295 297 299 303 307 305 305 304 301 298 293 291 288 287 288 291 296 298 302 338 18 21 335 311 282 282 281 283 286 285 284 285 286 284 284 283 282 279 276 276 274 275 272 270 268 269 268 265 267 268 268 276 281 287 244
9 353 354 334 313 310 317 309 300 310 336 35 8 342 336 309 297 294 298 295 296 297 294 304 320 313 312 303 297 297 299 300 300 300 300 300 303 305 304 303 301 294 290 288 299 309 309 307 306 304 311 339 348 342 335 312 291 282 275 274 271 271 274 280 285 284 283 279 279 279 277 269 266 265 267 266 264 264 264 263 262 264 265 263 254 256 251
317 303 294 287 276 277 271 285 308 312 318 353 345 316 304 293 286 294 297 302 303 295 309 313 303 300 301 295 298 298 296 295 293 293 293 293 292 293 293 293 294 298 303 307 311 316 316 316 313 308 318 326 328 328 319 305 295 294 284 282 281 282 286 287 282 279 280 283 281 281 278 278 274 269 266 267 266 262 260 261 261 257 259 262 255 251 257
326 317 243 242 41 14 340 312 289 290 322 335 321 304 311 319 311 313 316 307 300 306 299 296 293 291 296 304 303 297 290 286 285 285 286 287 284 279 283 291 292 293 297 304 314 315 312 307 299 299 309 311 311 312 309 298 297 290 284 288 285 283 283 287 288 282 280 279 281 279 278 279 277 272 269 262 257 258 259 257 259 259 258 257 252 250 251
348 325 320 26 339 303 244 299 292 293 314 302 294 301 304 297 298 302 303 303 299 293 287 281 281 291 299 302 298 295 292 289 283 280 278 276 285 297 299 294 291 291 291 293 295 293 287 285 285 290 288 289 298 299 289 278 278 277 279 279 278 278 281 281 279 283 278 274 272 273 277 273 274 274 271 267 263 262 259 259 260 260 254 253 256 258 252
307 273 317 327 296 303 313 305 311 300 289 280 286 293 295 300 299 296 293 294 290 286 277 281 286 288 286 285 289 290 292 296 298 297 298 300 298 294 291 289 287 286 284 287 289 289 284 276 281 294 312 306 294 285 274 266 267 270 272 275 275 276 280 278 279 276 279 279 278 275 271 269 268 267 269 268 266 261 260 259 260 259 259 256 255 272 276
303 294 300 294 297 292 294 289 291 289 292 288 287 281 282 290 294 290 293 295 291 291 295 294 288 288 289 287 287 285 283 281 287 293 297 299 298 297 297 295 291 287 284 284 287 290 317 345 341 321 306 291 275 271 271 270 269 271 274 273 275 276 276 277 275 273 273 275 278 281 279 275 271 269 269 270 271 268 262 260 260 259 256 254 237 224 254
320 311 311 309 307 304 302 297 290 288 287 283 281 282 280 278 284 287 292 292 296 298 296 297 297 295 291 290 289 294 294 292 290 289 289 294 298 301 298 299 302 305 303 300 311 19 1 330 318 313 309 293 279 263 259 264 274 275 278 279 279 277 275 271 269 267 264 270 272 273 276 279 282 281 280 278 272 265 264 261 254 247 244 246 200 193 218
297 289 294 299 298 300 295 292 293 296 292 290 289 289 286 281 276 279 282 285 291 293 296 296 296 296 294 294 293 291 291 291 291 292 295 296 300 309 316 313 308 300 301 301 333 32 338 313 315 315 307 291 288 282 277 274 283 286 286 282 279 277 277 276 274 272 273 271 270 273 274 276 274 274 273 267 264 265 264 260 256 245 244 232 150 195 199
284 277 277 280 288 290 283 278 280 279 279 277 276 273 277 285 288 290 290 291 295 297 295 290 286 288 290 292 291 291 293 295 294 296 300 310 328 320 309 306 305 306 301 302 342 339 303 313 314 310 299 292 287 292 293 293 290 287 276 272 272 275 276 277 277 275 276 275 275 274 273 271 271 272 270 265 264 272 268 267 268 252 245 132 164 181 184
291 282 281 280 280 277 282 281 279 277 278 282 289 290 286 288 292 297 298 301 305 306 302 299 299 297 295 296 296 295 296 296 301 306 311 315 314 305 296 296 295 323 333 317 316 309 313 316 317 308 299 297 300 299 296 295 297 293 286 278 276 273 276 275 278 278 278 277 275 272 272 271 270 272 272 276 292 311 349 13 15 40 38 81 102 85 71
285 285 286 289 281 277 283 287 289 289 289 285 289 295 299 301 301 303 303 306 309 312 310 310 311 307 307 306 304 303 306 311 311 310 309 309 310 301 294 297 73 19 334 331 324 313 315 316 314 310 308 310 312 308 305 305 303 295 286 280 278 282 283 285 284 283 283 281 278 273 267 263 267 276 289 334 15 27 49 49 52 52 70 62 62 63 66
280 285 288 286 285 289 285 291 293 293 295 295 293 293 300 303 304 305 305 307 310 314 308 305 304 300 299 301 302 305 308 309 306 304 307 310 303 305 311 305 353 28 337 327 316 310 312 314 314 315 318 316 310 309 308 305 300 289 292 297 303 304 302 300 300 299 302 301 297 294 293 293 286 296 329 32 67 79 77 62 55 55 58 65 64 66 70
276 283 285 283 280 281 282 284 290 294 292 290 293 296 298 299 302 297 303 308 306 305 303 298 296 298 305 309 308 307 305 298 301 308 296 281 291 304 309 298 337 329 325 324 314 313 312 317 318 317 318 317 309 315 318 310 314 321 322 322 321 318 322 325 328 325 322 317 316 315 320 326 339 17 33 53 55 58 66 73 72 66 64 66 78 80 85
262 265 269 272 272 277 277 282 286 288 293 297 296 295 299 305 300 295 297 296 296 300 304 303 306 310 311 311 310 308 305 317 328 312 310 278 201 231 294 298 317 323 333 331 324 316 321 325 328 329 326 327 326 330 340 356 350 355 357 356 359 1 3 1 357 351 352 349 349 353 353 356 6 20 31 36 36 38 55 66 75 73 72 80 82 65 73
261 260 259 266 274 277 281 283 283 288 291 292 294 292 289 283 273 278 287 292 297 304 306 309 315 316 318 323 327 321 325 333 335 337 330 318 283 170 87 346 332 330 335 335 327 326 323 330 333 332 331 334 336 338 337 355 13 17 29 27 24 24 21 16 12 8 5 4 3 1 3 5 9 16 25 30 35 34 35 38 45 49 58 57 71 69 67
265 265 266 263 265 277 277 270 274 279 278 281 283 280 278 273 278 284 293 302 313 318 323 322 324 325 326 328 320 313 313 318 330 338 339 335 335 340 9 355 339 333 333 335 330 332 332 337 338 342 347 350 348 346 358 360 5 12 12 22 31 30 32 30 29 28 24 18 16 12 13 15 12 15 20 27 30 31 29 34 36 35 41 49 50 49 44
255 256 256 261 260 255 255 261 267 270 277 286 295 293 325 335 326 321 319 326 327 327 325 323 319 320 324 320 315 311 308 307 309 323 317 304 302 308 326 327 327 331 332 334 335 339 341 341 345 350 353 359 358 359 6 5 8 12 18 17 23 25 26 26 20 18 17 15 11 14 26 29 40 41 32 30 30 35 29 30 32 31 31 36 40 40 42
255 265 265 261 264 263 273 285 293 293 305 328 338 334 339 342 340 333 331 331 320 312 316 315 313 316 322 326 325 326 332 331 326 325 3 329 317 312 316 321 326 334 340 337 341 345 352 349 349 350 357 4 13 18 17 19 17 23 20 25 22 25 19 19 20 19 17 18 17 22 22 28 27 24 28 32 34 37 36 37 37 36 33 40 46 46 47
279 284 288 289 291 293 297 305 323 339 339 341 325 308 316 330 329 321 321 328 326 314 304 306 316 316 322 325 331 330 329 328 319 317 24 343 325 314 319 329 332 343 343 348 353 351 355 352 352 358 4 10 14 14 16 13 18 18 19 23 23 14 15 16 12 16 15 17 15 14 12 10 16 22 24 29 30 29 33 41 38 27 25 26 31 38 48
264 273 279 279 277 279 288 296 307 313 324 331 322 308 324 324 311 313 330 335 331 321 311 304 314 325 326 325 325 329 330 323 304 296 325 329 321 323 322 329 341 352 355 355 351 346 351 352 359 5 8 11 17 12 15 14 9 12 16 16 17 18 13 16 16 7 15 16 16 19 18 12 13 14 16 20 24 20 27 34 38 32 27 28 28 27 30
283 278 277 292 302 303 310 307 290 286 315 319 309 319 324 322 319 335 341 341 330 316 309 313 318 329 334 328 324 322 319 313 304 303 303 312 322 328 333 338 341 351 355 351 344 344 343 346 359 6 12 18 15 18 19 13 16 14 14 14 13 14 18 15 17 21 15 15 16 14 14 15 14 17 19 20 19 22 25 31 34 36 35 39 37 32 28
295 280 276 277 273 274 259 257 270 282 294 303 312 314 316 322 315 316 323 335 336 328 320 319 308 328 335 329 325 322 324 323 322 329 328 331 331 333 342 341 345 355 356 356 357 351 347 359 3 7 9 13 16 17 21 16 14 15 15 16 13 9 6 8 10 15 16 13 15 16 12 7 9 11 11 13 15 18 18 21 24 26 24 30 31 37 35
257 266 267 262 255 246 257 255 227 221 239 283 296 311 310 313 311 312 307 341 331 321 320 321 313 319 343 334 326 325 330 331 333 336 336 338 339 338 334 343 345 343 353 352 349 348 351 354 350 358 4 5 5 3 4 10 11 8 5 5 7 7 11 9 5 5 14 16 14 14 17 11 2 5 6 5 8 13 15 19 21 22 21 21 24 23 31